ONEWEB-0127 (47273 NORAD) Tracking and Keplerian Element Data

This shows tracking and keplerian element data for the satellite.

Feedback or suggestion? Click here.




ElementValue
Catalog47273
NameONEWEB-0127
Epoch Orbit181
Epoch Day99.91667824
Epoch Year2021
RAAN7.2852
Inclination87.9595
Eccentricity0.0001413
Argument of Perigee88.6734
Mean Anonmoly249.7635
Mean Motion13.29025334
Decay Rate-0.00038267
L11 47273U 20100R 21099.91667824 -.00038267 00000-0 -83583-1 0 9996
L22 47273 87.9595 7.2852 0001413 88.6734 249.7635 13.29025334 1815

Live tracking and technical data element details for ONEWEB-0127 (NORAD 47273). ONEWEB-0127 can be tracked NOW for your location showing map with azimuth and elevation plus other details from your city location.

Track the satellite on the map from your city or location and see movement details for azimuth, elevation, latitude, longitude, range, height, and movement on the map or in text.







IsCatalogInMostPopularTable: catalog: 47273, numindb: 36
Update: records affected: 1



GetName: 47273 ONEWEB-0127

Hit Count: updated at: Sat, 10 Apr 2021 18:57:17 GMT